Other Surface Observations
Issued by NWS

Home | Current Version | Previous Version | Text Only | Print | Product List | Glossary On
Versions: 1 2 3 4 5 6 7 8 9 10 11 12 13 14 15 16 17 18 19 20 21 22 23 24 25 26 27 28 29 30 31 32 33 34 35 36 37 38 39 40 41 42 43 44 45 46 47 48 49 50
687
SXUS52 KTAE 100210
OSOTAE
OSOTAE
North Florida/South Alabama/Southwest Georgia Weather Roundup
National Weather Service Tallahassee Florida
900 PM EST FRI DEC 09 2016

Note: "fair" indicates few or no clouds below 12,000 feet with no
significant weather and/or obstructions to visibility.

!FLZ017-115-028-034-025-100300
...North Florida...

CITY           SKY/WX    TMP DP  RH WIND       PRES   REMARKS
TALLAHASSEE    CLEAR     37  26  64 NW3       30.44R
APALACHICOLA   CLEAR     44  22  41 NE6       30.43R WCI  41
PERRY          CLEAR     44  20  37 N6        30.43R WCI  41
CROSS CITY     PTCLDY    41  30  65 N5        30.41R WCI  38
JACKSONVILLE   PTCLDY    41  35  79 N8        30.41R WCI  36
$$

!FLZ112-006-005-002-011-100300
...Florida Panhandle...

CITY           SKY/WX    TMP DP  RH WIND       PRES   REMARKS
MARIANNA       CLEAR     38  27  64 CALM      30.45R
BONIFAY        FAIR      41  24  51 N6        30.47R WCI  37
PANAMA CITY NW FAIR      40  25  55 NW6       30.45R WCI  36
TYNDALL AFB    CLEAR     44  24  45 N7        30.45R WCI  40
TYND DRONE APT FAIR      45  27  49 N12       30.44S WCI  39
DE FUNIAK SPR  FAIR      38  23  53 N7        30.47R WCI  33
EGLIN AFB      PTCLDY    40  21  47 N7        30.47R WCI  35
DESTIN         CLEAR     48  24  39 N8        30.46R WCI  44
HURLBURT       CLEAR     38  23  54 N8        30.45R WCI  32
CRESTVIEW      CLEAR     38  22  52 N5        30.48S WCI  34
PENSACOLA      CLEAR     42  22  44 N8        30.47S WCI  37
$$

!ALZ063-066-100300
...South Alabama...

CITY           SKY/WX    TMP DP  RH WIND       PRES   REMARKS
DOTHAN         CLEAR     37  27  67 N7        30.49R WCI  32
OZARK CAIRNS   CLEAR     40  20  44 N8        30.46S WCI  34
FT RUCKER HELI CLEAR     36  23  59 N5        30.46S WCI  32
RUCKER HELI 3  NOT AVBL
RUCKER HELI 2  FAIR      41  20  43 N12       30.46S WCI  34
FLORALA APT    CLEAR     35  22  58 N5        30.48F WCI  31
ANDALUSIA      CLEAR     40  21  46 N6        30.48S WCI  36
TROY           CLEAR     32  24  72 CALM      30.49R
EUFALA         FAIR      36  22  56 CALM      30.47R
MOBILE         CLEAR     39  20  46 N8        30.50R WCI  33
$$

!GAZ120>161-100300
...Southwest and South Central Georgia...

CITY           SKY/WX    TMP DP  RH WIND       PRES   REMARKS
THOMASVILLE    FAIR      41  28  60 N3        30.45R
BAINBRIDGE     CLEAR     41  27  56 CALM      30.46R
MOODY AFB      CLEAR     39  24  53 N3        30.42R
VALDOSTA       CLEAR     33  26  75 N3        30.44R
MOULTRIE       CLEAR     41  27  56 N7        30.44S WCI  36
BLAKELY        CLEAR     41  25  52 CALM      30.47R
ALBANY         CLEAR     35  28  75 NW5       30.48R WCI  31
TIFTON         FAIR      39  25  57 N5        30.43F WCI  36
FITZGERALD     FAIR      34  33  96 CALM      30.47R
CORDELE        FAIR      36  28  74 CALM      30.47R
AMERICUS       FAIR      37  18  44 CALM      30.48R
HOMERVILLE     FAIR      34  32  93 CALM      30.45R
$$

!GMZ750-755-770-775-100300
...Coastal and Buoy Obs...

STATION/POSITION TIME  TEMP    WIND        PRES    VSBY  WAVE
                       AIR SEA DIR/SP/G                  HT/PER
                 (UTC) (F)     (DEG/KT/KT) (MB)    (MI)  (FT/S)
KEATON BEACH     0100   46      10/  7/ 11 1029.2R
CEDAR KEY        0100   51      20/  7/ 10 1028.8R
C TOWER          0100   52      20/ 19/ 21 1030.1R
APALACHICOLA BUO 0050   60 73   40/ 17/ 23 1027.7          5/ 5
PANAMA CITY BUOY 0050   58 74              1028.6          5/ 6
MOBILE BUOY      0150   55 74   30/ 19/ 23 1031.0R         5/ 6
ORANGE BCH AL BU 0050   50 69   20/ 17/ 21 1031.5          3/ 3
$$




USA.gov is the U.S. government's official web portal to all federal, state and local government web resources and services.